Regional Weather Roundup
Issued by NWS

Home | Current Version | Previous Version | Text Only | Print | Product List | Glossary On
Versions: 1 2 3 4 5 6 7 8 9 10 11 12 13 14 15 16 17 18 19 20 21 22 23 24 25 26 27 28 29 30 31 32 33 34 35 36 37 38 39 40 41 42 43 44 45 46 47 48 49 50
077
ASUS44 KLIX 200113
RWRLA
LOUISIANA WEATHER ROUNDUP
NATIONAL WEATHER SERVICE NEW ORLEANS LA
700 PM CST FRI JAN 19 2018

NOTE: "FAIR" INDICATES FEW OR NO CLOUDS BELOW 12,000 FEET WITH NO
      SIGNIFICANT WEATHER AND/OR OBSTRUCTIONS TO VISIBILITY.
      SKY/WX - SKY CONDITION AND SIGNIFICANT WEATHER.
      TMP - AIR TEMPERATURE.    DP   - DEWPOINT TEMPERATURE.
      RH  - RELATIVE HUMIDITY.  PRES - PRESSURE.
      HX  - HEAT INDEX.         WCI  - WIND CHILL INDEX.

*  THESE STATIONS ARE NOT NWS OR FAA STATIONS AND ARE NOT UNDER
   NWS QUALITY CONTROL.

LAZ040-048-061>063-065-066-069-200200-
SOUTHEAST LOUISIANA

CITY           SKY/WX    TMP DP  RH WIND       PRES   REMARKS
N.O. INTL ARPT MOCLDY    50  37  61 S6        30.26S
N.O. LAKEFRONT FAIR      47  34  60 SE8       30.26F
N.O. DOWNTOWN* FAIR      49  35  58 SE5       30.27S
RESERVE*       FAIR      48  32  53 CALM      30.25S
SLIDELL        FAIR      44  31  60 SE5       30.26S
BATON ROUGE    FAIR      47  21  35 E6        30.24R
BOOTHVILLE     FAIR      49  40  71 E6        30.28R
BELLE CHASSE   MOCLDY    45  37  73 SE7       30.26F
BOGALUSA*      FAIR      50  25  37 W3        30.26R
GALLIANO*      FAIR      46  36  69 E3        30.26S
NEW ROADS*     FAIR      41  29  61 CALM      30.24R
GONZALES*      FAIR      50  32  50 CALM      30.25R
HAMMOND*       FAIR      43  32  65 CALM      30.26R
HOUMA*         MOCLDY    46  36  66 E6        30.25S
PORT FOURCHON* CLEAR     52  45  76 E8        30.26R

$$

LAZ041-044-053-054-200200-
SOUTHWEST LOUISIANA

CITY           SKY/WX    TMP DP  RH WIND       PRES   REMARKS
LAKE CHARLES   FAIR      48  39  71 E7        30.21R
LAFAYETTE      FAIR      49  31  49 E3        30.22S
PATTERSON      FAIR      50  37  61 SE6       30.25S
SALT POINT       N/A     49  39  68 SE7       30.23R
NEW IBERIA     FAIR      49  26  41 E7        30.23S
CHENAULT AIRPK CLEAR     45  39  81 E6        30.21R

$$

LAZ027-028-200200-
CENTRAL LOUISIANA

CITY           SKY/WX    TMP DP  RH WIND       PRES   REMARKS
FORT POLK      MOCLDY    48  33  55 CALM      30.19R
ALEXANDRIA INT CLOUDY    48  29  47 SE7       30.20R
ALEXANDRIA     CLOUDY    48  24  39 SE3       30.21S

$$

LAZ001-002-200200-
NORTHWEST LOUISIANA

CITY           SKY/WX    TMP DP  RH WIND       PRES   REMARKS
SHREVEPORT     CLOUDY    51  25  36 SE13      30.13F
BARKSDALE AFB  CLOUDY    49  25  38 SE13      30.14F
DTN SHREVEPORT CLOUDY    50  27  40 SE13      30.15S HAZE

$$

LAZ014-016-200200-
NORTHEAST LOUISIANA

CITY           SKY/WX    TMP DP  RH WIND       PRES   REMARKS
MONROE         CLOUDY    47  25  42 SE6       30.22R
TALLULAH       CLOUDY    45  29  53 CALM      30.24R

$$





USA.gov is the U.S. government's official web portal to all federal, state and local government web resources and services.